Regional Weather Roundup
Issued by NWS

Home | Current Version | Previous Version | Graphics & Text | Print | Product List | Glossary On
Versions: 1 2 3 4 5 6 7 8 9 10 11 12 13 14 15 16 17 18 19 20 21 22 23 24 25 26 27 28 29 30 31 32 33 34 35 36 37 38 39 40 41 42 43 44 45 46 47 48 49 50
000
ASUS45 KSLC 011610
RWRUT
UTAH REGIONAL WEATHER ROUNDUP
NATIONAL WEATHER SERVICE SALT LAKE CITY UT
1000 AM MDT SAT AUG 01 2015

UTZ001>011-023>025-011700-

NORTHERN UTAH

CITY           SKY/WX    TMP DP  RH WIND       PRES   REMARKS
BRIGHAM CITY   SUNNY     74  38  27 CALM      30.16S
HILL AFB       NOT AVBL
LOGAN          SUNNY     70  41  34 VRB3      30.19F
OGDEN          SUNNY     77  39  25 VRB5      30.16S
PROVO AIRPORT  MOSUNNY   75  39  27 CALM      30.19F
SALT LAKE CITY MOSUNNY   79  40  24 S6        30.15S
VERNAL         SUNNY     77  27  15 CALM      30.21F
WENDOVER       SUNNY     79  28  15 CALM      30.17R
HEBER CITY       N/A     63  36  36 CALM      30.28S HAZE
WEST JORDAN    SUNNY     79  37  22 SE6       30.18S

$$

UTZ012>022-026-027-011700-

SOUTHERN/CENTRAL UTAH

CITY           SKY/WX    TMP DP  RH WIND       PRES   REMARKS
BLANDING       CLOUDY    69  59  71 CALM      30.38F
BRYCE CANYON   CLOUDY    66  45  46 CALM      30.40S
CEDAR CITY     CLOUDY    76  46  34 S3        30.24S
DELTA          PTSUNNY   78  39  24 S3        30.18S
HANKSVILLE     CLOUDY    81  48  32 S5        30.17S
MILFORD        PTSUNNY   79  47  32 S13       30.19S
MOAB/CYNLANDS  SUNNY     84  54  35 S7        30.14F
PRICE          MOSUNNY   78  45  30 E8        30.27S
ST GEORGE      MOSUNNY   84  54  34 S6        30.08S
KANAB          CLOUDY    73  54  49 CALM      30.27S

$$

REGIONAL REPORTS     COLORADO/ARIZONA

CITY           SKY/WX    TMP DP  RH WIND       PRES   REMARKS
CRAIG, CO      SUNNY     76  41  28 NE8       30.29F
GRAND JUNCTION SUNNY     80  47  31 SE10      30.19F
RIFLE          SUNNY     75  47  36 VRB3      30.25F
MONTROSE       PTSUNNY   76  47  35 SE8       30.29F
CORTEZ         RAIN      62  60  93 CALM      30.32F FOG
PAGE, AZ       CLOUDY    79  55  43 VRB6      30.17R
GRAND CANYON   LGT RAIN  62  59  90 N3        30.37R
KINGMAN        CLOUDY    84  55  36 SW12      30.13R
FLAGSTAFF      CLOUDY    68  53  58 CALM      30.37S

$$

REGIONAL REPORTS    NEVADA/IDAHO/WYOMING

CITY           SKY/WX    TMP DP  RH WIND       PRES   REMARKS
LAS VEGAS, NV  CLOUDY    91  57  31 SE5       29.95R
ELY            PTSUNNY   70  34  26 CALM      30.30S
ELKO           SUNNY     71  28  20 CALM      30.21F
POCATELLO, ID  SUNNY     72  40  31 NW3       30.20S
BURLEY         SUNNY     74  43  32 E7        30.14F
EVANSTON, WY   SUNNY     71  31  22 CALM      30.36S
ROCK SPRINGS   SUNNY     70  32  24 CALM      30.32F
KEMMERER       SUNNY     73  32  21 NW3       30.37F

$$



USA.gov is the U.S. government's official web portal to all federal, state and local government web resources and services.